�������l�o���
Date,Time,MP-1(��Sv/h),MP-2(��Sv/h),MP-3(��Sv/h),MP-4(��Sv/h),MP-5(��Sv/h),MP-6(��Sv/h),MP-7(��Sv/h),MP-8(��Sv/h),����,����(m/s),���J
2020/09/24,00:00,0.665,0.942,0.608,1.162,0.843,0.384,0.673,0.634,�k�k��,8.3,��
2020/09/24,00:10,0.663,0.945,0.606,1.163,0.838,0.384,0.672,0.634,�k�k��,8.8,��
2020/09/24,00:20,0.664,0.945,0.606,1.164,0.839,0.385,0.671,0.634,�k�k��,8.2,��
2020/09/24,00:30,0.663,0.943,0.606,1.162,0.842,0.383,0.671,0.635,�k��,8.3,��
2020/09/24,00:40,0.663,0.944,0.606,1.162,0.840,0.385,0.672,0.633,�k�k��,8.3,��
2020/09/24,00:50,0.663,0.942,0.605,1.161,0.841,0.383,0.673,0.634,�k�k��,8.1,��
2020/09/24,01:00,0.661,0.944,0.607,1.164,0.847,0.386,0.673,0.634,�k�k��,8.5,��
2020/09/24,01:10,0.662,0.945,0.605,1.163,0.839,0.383,0.673,0.634,�k�k��,7.0,��
2020/09/24,01:20,0.661,0.943,0.606,1.164,0.842,0.383,0.671,0.633,�k�k��,7.8,��
2020/09/24,01:30,0.664,0.944,0.607,1.162,0.842,0.384,0.671,0.634,�k�k��,8.1,��
2020/09/24,01:40,0.665,0.944,0.605,1.165,0.841,0.385,0.671,0.635,�k��,9.9,��
2020/09/24,01:50,0.662,0.945,0.606,1.164,0.841,0.385,0.673,0.633,�k��,9.4,��
2020/09/24,02:00,0.663,0.944,0.606,1.164,0.841,0.384,0.672,0.633,�k��,10.2,��
2020/09/24,02:10,0.662,0.945,0.606,1.165,0.843,0.384,0.673,0.635,�k�k��,10.6,��
2020/09/24,02:20,0.662,0.942,0.607,1.162,0.843,0.384,0.673,0.633,�k��,9.1,��
2020/09/24,02:30,0.664,0.946,0.607,1.164,0.841,0.382,0.672,0.634,�k��,9.9,��
2020/09/24,02:40,0.663,0.945,0.606,1.165,0.842,0.385,0.671,0.633,�k�k��,10.5,��
2020/09/24,02:50,0.664,0.941,0.605,1.163,0.839,0.384,0.671,0.631,�k��,11.0,��
2020/09/24,03:00,0.663,0.943,0.602,1.164,0.840,0.383,0.673,0.633,�k�k��,11.6,��
2020/09/24,03:10,0.662,0.944,0.606,1.165,0.839,0.383,0.672,0.632,�k�k��,11.3,��
2020/09/24,03:20,0.664,0.941,0.606,1.164,0.839,0.383,0.671,0.631,�k�k��,9.5,��
2020/09/24,03:30,0.662,0.942,0.604,1.163,0.839,0.384,0.671,0.631,�k�k��,11.9,��
2020/09/24,03:40,0.660,0.941,0.603,1.164,0.838,0.383,0.672,0.631,�k�k��,12.7,��
2020/09/24,03:50,0.662,0.943,0.606,1.165,0.839,0.383,0.672,0.632,�k�k��,11.4,��
2020/09/24,04:00,0.662,0.943,0.603,1.164,0.839,0.382,0.671,0.633,�k�k��,11.9,��
2020/09/24,04:10,0.662,0.944,0.604,1.163,0.838,0.382,0.671,0.632,�k�k��,11.4,��
2020/09/24,04:20,0.663,0.942,0.602,1.166,0.837,0.382,0.671,0.633,�k�k��,11.0,��
2020/09/24,04:30,0.661,0.944,0.604,1.164,0.838,0.382,0.670,0.632,�k�k��,10.8,��
2020/09/24,04:40,0.663,0.943,0.603,1.162,0.838,0.383,0.672,0.632,�k��,11.4,��
2020/09/24,04:50,0.663,0.944,0.603,1.164,0.837,0.383,0.672,0.631,�k�k��,11.9,��
2020/09/24,05:00,0.661,0.941,0.604,1.166,0.839,0.382,0.673,0.632,�k�k��,12.5,��
2020/09/24,05:10,0.662,0.943,0.603,1.165,0.841,0.383,0.671,0.632,�k�k��,13.8,�L
2020/09/24,05:20,0.664,0.943,0.604,1.165,0.839,0.382,0.673,0.633,�k�k��,12.2,�L
2020/09/24,05:30,0.661,0.943,0.603,1.166,0.838,0.383,0.671,0.631,�k�k��,11.8,��
2020/09/24,05:40,0.663,0.944,0.604,1.165,0.841,0.383,0.673,0.633,�k�k��,12.1,��
2020/09/24,05:50,0.663,0.944,0.604,1.165,0.838,0.383,0.672,0.632,�k�k��,12.7,��
2020/09/24,06:00,0.662,0.943,0.607,1.163,0.840,0.382,0.672,0.631,�k�k��,13.1,��
2020/09/24,06:10,0.663,0.943,0.605,1.168,0.840,0.381,0.672,0.634,�k�k��,13.0,��
2020/09/24,06:20,0.662,0.943,0.605,1.162,0.842,0.383,0.671,0.633,�k��,12.5,��
2020/09/24,06:30,0.662,0.941,0.604,1.163,0.841,0.383,0.671,0.632,�k�k��,12.4,��
2020/09/24,06:40,0.662,0.943,0.604,1.166,0.839,0.384,0.672,0.633,�k�k��,13.8,��
2020/09/24,06:50,0.664,0.942,0.603,1.164,0.838,0.383,0.670,0.632,�k�k��,12.8,�L
2020/09/24,07:00,0.662,0.945,0.603,1.165,0.838,0.382,0.673,0.631,�k�k��,13.3,�L
2020/09/24,07:10,0.661,0.944,0.603,1.166,0.839,0.382,0.672,0.632,�k�k��,12.7,�L
2020/09/24,07:20,0.663,0.943,0.604,1.166,0.839,0.383,0.671,0.632,�k�k��,13.3,�L
2020/09/24,07:30,0.662,0.941,0.602,1.165,0.840,0.384,0.671,0.630,�k�k��,13.3,�L
2020/09/24,07:40,0.662,0.945,0.604,1.167,0.839,0.384,0.671,0.633,�k�k��,12.7,�L
2020/09/24,07:50,0.660,0.945,0.604,1.167,0.840,0.385,0.673,0.632,�k�k��,13.3,�L
2020/09/24,08:00,0.664,0.946,0.603,1.166,0.838,0.384,0.672,0.632,�k��,11.1,�L
2020/09/24,08:10,0.663,0.943,0.605,1.166,0.839,0.383,0.673,0.631,�k�k��,11.7,��
2020/09/24,08:20,0.663,0.945,0.606,1.167,0.840,0.384,0.672,0.633,�k�k��,12.0,��
2020/09/24,08:30,0.662,0.945,0.605,1.166,0.839,0.383,0.672,0.632,�k�k��,12.4,��
2020/09/24,08:40,0.663,0.943,0.604,1.167,0.839,0.382,0.673,0.632,�k�k��,11.3,��
2020/09/24,08:50,0.664,0.946,0.602,1.166,0.841,0.383,0.673,0.633,�k�k��,11.3,��
2020/09/24,09:00,0.662,0.945,0.603,1.167,0.840,0.383,0.672,0.632,�k�k��,11.4,��
2020/09/24,09:10,0.663,0.943,0.603,1.167,0.839,0.383,0.673,0.633,�k�k��,11.6,�L
2020/09/24,09:20,0.664,0.943,0.603,1.168,0.839,0.383,0.673,0.632,�k�k��,12.1,�L
2020/09/24,09:30,0.664,0.942,0.604,1.165,0.840,0.384,0.671,0.632,�k�k��,12.5,�L
2020/09/24,09:40,0.662,0.943,0.601,1.168,0.842,0.384,0.672,0.633,�k�k��,13.0,�L
2020/09/24,09:50,0.663,0.943,0.604,1.167,0.839,0.384,0.673,0.631,�k�k��,11.0,�L
2020/09/24,10:00,0.665,0.941,0.605,1.168,0.840,0.384,0.673,0.633,�k�k��,13.0,�L
2020/09/24,10:10,0.664,0.945,0.603,1.167,0.841,0.384,0.672,0.634,�k�k��,13.0,��
2020/09/24,10:20,0.663,0.943,0.603,1.167,0.839,0.383,0.673,0.631,�k�k��,13.3,�L
2020/09/24,10:30,0.662,0.943,0.604,1.166,0.840,0.383,0.675,0.632,�k�k��,13.0,�L
2020/09/24,10:40,0.662,0.944,0.604,1.168,0.842,0.383,0.672,0.632,�k�k��,12.8,�L
2020/09/24,10:50,0.661,0.943,0.604,1.167,0.841,0.384,0.672,0.632,�k�k��,12.4,�L
2020/09/24,11:00,0.664,0.946,0.605,1.168,0.841,0.383,0.674,0.632,�k��,13.1,��
2020/09/24,11:10,0.664,0.943,0.604,1.169,0.842,0.383,0.673,0.632,�k�k��,12.0,�L
2020/09/24,11:20,0.663,0.940,0.603,1.169,0.843,0.383,0.673,0.632,�k�k��,13.1,�L
2020/09/24,11:30,0.665,0.943,0.605,1.167,0.839,0.382,0.672,0.632,�k�k��,13.6,�L
2020/09/24,11:40,0.666,0.941,0.604,1.168,0.839,0.383,0.674,0.631,�k�k��,12.2,�L
2020/09/24,11:50,0.664,0.943,0.604,1.167,0.841,0.383,0.672,0.632,�k�k��,12.4,�L
2020/09/24,12:00,0.663,0.941,0.604,1.167,0.841,0.383,0.675,0.633,�k�k��,13.6,��
2020/09/24,12:10,0.664,0.943,0.604,1.168,0.842,0.383,0.673,0.633,�k�k��,13.6,�L
2020/09/24,12:20,0.666,0.941,0.604,1.168,0.843,0.383,0.672,0.633,�k�k��,13.5,��
2020/09/24,12:30,0.665,0.944,0.605,1.167,0.843,0.383,0.674,0.633,�k�k��,13.1,��
2020/09/24,12:40,0.664,0.945,0.604,1.169,0.843,0.383,0.673,0.632,�k�k��,13.8,��
2020/09/24,12:50,0.663,0.945,0.606,1.170,0.843,0.383,0.673,0.632,�k�k��,13.8,��
2020/09/24,13:00,0.664,0.945,0.604,1.170,0.842,0.383,0.672,0.633,�k�k��,15.0,��
2020/09/24,13:10,0.664,0.946,0.603,1.170,0.842,0.383,0.672,0.631,�k�k��,14.2,��
2020/09/24,13:20,0.665,0.947,0.605,1.171,0.842,0.383,0.673,0.633,�k��,13.6,��
2020/09/24,13:30,0.666,0.946,0.604,1.169,0.842,0.383,0.673,0.632,�k�k��,12.5,��
2020/09/24,13:40,0.665,0.944,0.604,1.171,0.842,0.383,0.672,0.632,�k�k��,12.7,��
2020/09/24,13:50,0.665,0.946,0.605,1.168,0.842,0.385,0.673,0.631,�k�k��,11.9,��
2020/09/24,14:00,0.666,0.947,0.603,1.170,0.843,0.383,0.673,0.631,�k�k��,12.7,��
2020/09/24,14:10,0.663,0.946,0.605,1.170,0.844,0.382,0.673,0.633,�k��,12.4,��
2020/09/24,14:20,0.665,0.948,0.605,1.171,0.841,0.384,0.672,0.631,�k�k��,12.4,��
2020/09/24,14:30,0.667,0.945,0.607,1.168,0.843,0.384,0.673,0.631,�k�k��,12.7,��
2020/09/24,14:40,0.664,0.946,0.603,1.169,0.842,0.383,0.673,0.633,�k�k��,13.5,��
2020/09/24,14:50,0.667,0.947,0.605,1.171,0.844,0.383,0.677,0.633,�k�k��,13.6,��
2020/09/24,15:00,0.666,0.945,0.604,1.170,0.841,0.383,0.674,0.632,�k�k��,13.5,��
2020/09/24,15:10,0.666,0.948,0.605,1.172,0.846,0.382,0.673,0.632,�k�k��,12.2,��
2020/09/24,15:20,0.665,0.946,0.605,1.170,0.842,0.384,0.672,0.632,�k�k��,13.5,��
2020/09/24,15:30,0.667,0.947,0.605,1.171,0.842,0.384,0.672,0.632,�k�k��,13.3,��
2020/09/24,15:40,0.664,0.945,0.605,1.171,0.844,0.384,0.673,0.632,�k�k��,12.7,��
2020/09/24,15:50,0.665,0.949,0.605,1.170,0.842,0.384,0.673,0.634,�k�k��,12.8,��
2020/09/24,16:00,0.665,0.946,0.606,1.170,0.844,0.382,0.674,0.632,�k��,13.8,��
2020/09/24,16:10,0.667,0.948,0.605,1.170,0.844,0.383,0.674,0.631,�k�k��,13.0,��
2020/09/24,16:20,0.665,0.949,0.606,1.172,0.843,0.383,0.673,0.633,�k�k��,14.1,��
2020/09/24,16:30,0.666,0.949,0.604,1.173,0.844,0.383,0.672,0.634,�k�k��,13.8,��
2020/09/24,16:40,0.665,0.948,0.605,1.174,0.843,0.383,0.674,0.632,�k�k��,14.1,��
2020/09/24,16:50,0.666,0.948,0.604,1.173,0.843,0.382,0.673,0.632,�k�k��,12.7,��
2020/09/24,17:00,0.666,0.948,0.605,1.172,0.843,0.384,0.673,0.634,�k�k��,14.4,��
2020/09/24,17:10,0.666,0.949,0.605,1.171,0.842,0.384,0.673,0.632,�k�k��,12.7,�L
2020/09/24,17:20,0.665,0.948,0.606,1.174,0.845,0.383,0.674,0.632,�k�k��,13.0,��
2020/09/24,17:30,0.666,0.946,0.605,1.174,0.844,0.382,0.673,0.632,�k�k��,13.8,��
2020/09/24,17:40,0.666,0.948,0.604,1.172,0.844,0.383,0.673,0.633,�k�k��,13.8,��
2020/09/24,17:50,0.666,0.948,0.606,1.171,0.845,0.384,0.673,0.632,�k�k��,13.0,��
2020/09/24,18:00,0.665,0.949,0.604,1.169,0.843,0.385,0.673,0.634,�k�k��,12.8,��
2020/09/24,18:10,0.664,0.949,0.605,1.172,0.844,0.382,0.673,0.632,�k��,13.0,��
2020/09/24,18:20,0.666,0.948,0.606,1.171,0.844,0.383,0.673,0.634,�k�k��,13.8,��
2020/09/24,18:30,0.666,0.950,0.606,1.171,0.843,0.385,0.674,0.635,�k��,11.8,��
2020/09/24,18:40,0.664,0.948,0.607,1.174,0.843,0.384,0.674,0.633,�k�k��,13.0,��
2020/09/24,18:50,0.667,0.950,0.607,1.173,0.842,0.383,0.673,0.633,�k�k��,12.2,��
2020/09/24,19:00,0.666,0.948,0.604,1.171,0.844,0.385,0.673,0.633,�k�k��,11.6,��
2020/09/24,19:10,0.664,0.948,0.605,1.173,0.842,0.385,0.673,0.635,�k�k��,11.4,��
2020/09/24,19:20,0.666,0.947,0.605,1.173,0.843,0.384,0.674,0.634,�k�k��,12.1,��
2020/09/24,19:30,0.665,0.948,0.606,1.174,0.844,0.383,0.673,0.632,�k�k��,11.8,��
2020/09/24,19:40,0.666,0.947,0.606,1.173,0.844,0.384,0.672,0.634,�k��,12.2,��
2020/09/24,19:50,0.667,0.951,0.606,1.173,0.844,0.384,0.674,0.634,�k�k��,12.0,��
2020/09/24,20:00,0.666,0.949,0.606,1.174,0.843,0.385,0.674,0.633,�k�k��,12.7,��
2020/09/24,20:10,0.667,0.949,0.606,1.172,0.843,0.383,0.673,0.634,�k�k��,12.2,��
2020/09/24,20:20,0.666,0.949,0.607,1.170,0.845,0.385,0.673,0.632,�k�k��,12.2,��
2020/09/24,20:30,0.666,0.950,0.609,1.172,0.845,0.384,0.674,0.634,�k�k��,11.7,��
2020/09/24,20:40,0.664,0.947,0.608,1.174,0.845,0.382,0.674,0.633,�k�k��,12.7,��
2020/09/24,20:50,0.666,0.950,0.606,1.172,0.845,0.383,0.673,0.634,�k�k��,13.0,��
2020/09/24,21:00,0.667,0.951,0.608,1.173,0.845,0.382,0.673,0.634,�k�k��,13.0,��
2020/09/24,21:10,0.665,0.948,0.608,1.173,0.845,0.384,0.673,0.635,�k�k��,12.7,��
2020/09/24,21:20,0.666,0.949,0.605,1.175,0.842,0.384,0.675,0.633,�k�k��,13.3,��
2020/09/24,21:30,0.667,0.949,0.608,1.171,0.845,0.385,0.674,0.633,�k�k��,12.8,�L
2020/09/24,21:40,0.667,0.950,0.608,1.172,0.843,0.384,0.674,0.634,�k�k��,11.6,�L
2020/09/24,21:50,0.667,0.948,0.607,1.173,0.845,0.386,0.671,0.633,�k�k��,12.2,�L
2020/09/24,22:00,0.666,0.949,0.607,1.172,0.844,0.387,0.673,0.632,�k�k��,12.0,�L
2020/09/24,22:10,0.665,0.947,0.605,1.174,0.844,0.385,0.673,0.634,�k�k��,14.2,�L
2020/09/24,22:20,0.664,0.943,0.603,1.169,0.839,0.385,0.673,0.631,�k�k��,12.7,�L
2020/09/24,22:30,0.664,0.939,0.603,1.167,0.838,0.385,0.672,0.630,�k�k��,12.4,�L
2020/09/24,22:40,0.663,0.940,0.602,1.167,0.835,0.385,0.672,0.630,�k�k��,13.0,�L
2020/09/24,22:50,0.663,0.938,0.602,1.166,0.837,0.385,0.672,0.630,�k�k��,11.6,�L
2020/09/24,23:00,0.663,0.936,0.603,1.170,0.834,0.385,0.671,0.630,�k�k��,12.4,�L
2020/09/24,23:10,0.664,0.936,0.601,1.164,0.832,0.385,0.670,0.628,�k�k��,11.3,��
2020/09/24,23:20,0.661,0.935,0.601,1.167,0.833,0.383,0.670,0.628,�k�k��,9.8,��
2020/09/24,23:30,0.662,0.935,0.600,1.165,0.832,0.384,0.670,0.630,�k�k��,10.9,�L
2020/09/24,23:40,0.663,0.936,0.603,1.165,0.833,0.385,0.672,0.629,�k�k��,11.1,�L
2020/09/24,23:50,0.661,0.937,0.602,1.166,0.833,0.383,0.671,0.631,�k�k��,10.8,�L
